Port Aransas, TX

11:58 AM CST on December 02, 2016 (GMT -0600)
Port Aransas

Weather History for KRAS - March, 2013

Change the Weather History Date:

Wednesday, March 27, 2013

  Actual Average (KCRP) Record (KCRP)
Temperature  
Mean Temperature 62 °F 68 °F  
Max Temperature 67 °F 78 °F 101 °F (1984)
Min Temperature 57 °F 59 °F 37 °F (1955)
Degree Days  
Heating Degree Days 4 2  
Month to date heating degree days 77  
Since 1 July heating degree days 877  
Cooling Degree Days 0 5  
Month to date cooling degree days 95  
Year to date cooling degree days 171  
Growing Degree Days 12 (Base 50)    
Moisture  
Dew Point 48 °F    
Average Humidity 59    
Maximum Humidity 80    
Minimum Humidity 45    
Precipitation  
Precipitation 0.00 in 0.06 in 2.22 in (1992)
Month to date precipitation 1.69  
Year to date precipitation 5.16  
Snow  
Snow 0.00 in - - ()
Month to date snowfall  
Since 1 July snowfall  
Snow Depth -    
Sea Level Pressure  
Sea Level Pressure 30.27 in    
Wind  
Wind Speed 11 mph (SE)    
Max Wind Speed 15 mph    
Max Gust Speed 21 mph    
Visibility 10 miles    
Events      
T = Trace of Precipitation, MM = Missing Value Source: NWS Daily Summary

Daily Weather History Graph

Daily Weather History Graph

Search for Another Location

Airport or City:

Trip Planner

Search our weather history database for the weather conditions in past years. The results will help you decide how hot, cold, wet, or windy it might be!

Date:

Astronomy

Mar. 27, 2013 Rise Set
Actual Time 7:24 AM CDT 7:43 PM CDT
Civil Twilight 7:00 AM CDT 8:07 PM CDT
Nautical Twilight 6:33 AM CDT 8:34 PM CDT
Astronomical Twilight 6:05 AM CDT 9:02 PM CDT
Moon 8:21 PM CDT (3/27) 7:20 AM CDT (3/27)
Length of Visible Light 13h 06m
Length of Day
12h 19m
Full, 100% of the Moon is Illuminated
Mar 27
Full
Apr 2
Last Quarter
Apr 10
New
Apr 18
First Quarter
Apr 25
Full

Hourly Weather History & Observations

Time (CDT) Temp. Dew Point Humidity Pressure Visibility Wind Dir Wind Speed Gust Speed Precip Events Conditions
12:15 AM 57.6 °F 37.4 °F 47% 30.35 in 10.0 mi SSE 10.4 mph 16.1 mph N/A   Clear
12:35 AM 57.4 °F 36.1 °F 45% 30.34 in 10.0 mi SSE 9.2 mph - N/A   Clear
12:55 AM 57.2 °F 38.1 °F 49% 30.33 in 10.0 mi SSE 11.5 mph - N/A   Clear
1:15 AM 57.4 °F 36.7 °F 46% 30.33 in 10.0 mi SSE 10.4 mph - N/A   Clear
1:35 AM 57.7 °F 36.9 °F 46% 30.32 in 10.0 mi SE 10.4 mph - N/A   Clear
1:55 AM 58.1 °F 37.8 °F 47% 30.32 in 10.0 mi SSE 11.5 mph 16.1 mph N/A   Clear
2:15 AM 57.6 °F 38.8 °F 50% 30.32 in 10.0 mi SSE 10.4 mph - N/A   Clear
2:35 AM 58.1 °F 38.5 °F 48% 30.31 in 10.0 mi SSE 10.4 mph - N/A   Clear
2:55 AM 57.9 °F 39.0 °F 49% 30.30 in 10.0 mi SE 12.7 mph - N/A   Clear
3:15 AM 58.3 °F 39.4 °F 49% 30.29 in 10.0 mi SE 9.2 mph 16.1 mph N/A   Clear
3:35 AM 58.3 °F 39.4 °F 49% 30.28 in 10.0 mi SE 10.4 mph - N/A   Clear
3:55 AM 58.3 °F 39.9 °F 50% 30.28 in 10.0 mi SE 10.4 mph - N/A   Clear
4:15 AM 58.1 °F 41.0 °F 53% 30.28 in 10.0 mi SE 12.7 mph - N/A   Clear
4:35 AM 58.1 °F 41.5 °F 54% 30.27 in 10.0 mi SE 8.1 mph - N/A   Clear
4:55 AM 58.5 °F 40.8 °F 52% 30.27 in 10.0 mi SE 10.4 mph - N/A   Clear
5:15 AM 58.6 °F 41.7 °F 53% 30.27 in 10.0 mi SE 10.4 mph - N/A   Clear
5:35 AM 58.6 °F 42.1 °F 54% 30.27 in 10.0 mi SE 11.5 mph - N/A   Clear
5:55 AM 58.6 °F 42.8 °F 56% 30.27 in 10.0 mi SE 12.7 mph 17.3 mph N/A   Clear
6:15 AM 59.0 °F 43.7 °F 57% 30.27 in 10.0 mi SE 11.5 mph 17.3 mph N/A   Clear
6:35 AM 59.0 °F 44.1 °F 58% 30.27 in 10.0 mi SE 12.7 mph 16.1 mph N/A   Clear
6:55 AM 59.0 °F 44.2 °F 58% 30.28 in 10.0 mi SE 8.1 mph - N/A   Clear
7:15 AM 59.0 °F 44.8 °F 59% 30.28 in 10.0 mi SE 10.4 mph - N/A   Clear
7:35 AM 59.4 °F 43.7 °F 56% 30.28 in 10.0 mi SE 10.4 mph 17.3 mph N/A   Clear
7:55 AM 59.9 °F 44.1 °F 56% 30.29 in 10.0 mi SSE 11.5 mph 17.3 mph N/A   Clear
8:15 AM 60.8 °F 44.1 °F 54% 30.30 in 10.0 mi SE 12.7 mph 16.1 mph N/A   Clear
8:35 AM 61.7 °F 45.1 °F 55% 30.30 in 10.0 mi SE 12.7 mph 17.3 mph N/A   Scattered Clouds
8:55 AM 62.4 °F 45.5 °F 54% 30.31 in 10.0 mi SE 12.7 mph - N/A   Scattered Clouds
9:15 AM 63.0 °F 45.9 °F 54% 30.32 in 10.0 mi SE 12.7 mph 16.1 mph N/A   Mostly Cloudy
9:35 AM 62.8 °F 45.3 °F 53% 30.32 in 10.0 mi SE 11.5 mph - N/A   Overcast
9:55 AM 63.5 °F 46.4 °F 54% 30.33 in 10.0 mi SE 13.8 mph 19.6 mph N/A   Overcast
10:15 AM 63.3 °F 46.2 °F 54% 30.33 in 10.0 mi SE 13.8 mph 17.3 mph N/A   Overcast
10:35 AM 63.7 °F 46.8 °F 54% 30.33 in 10.0 mi SE 15.0 mph 20.7 mph N/A   Overcast
10:55 AM 63.7 °F 47.1 °F 55% 30.34 in 10.0 mi SSE 15.0 mph - N/A   Overcast
11:15 AM 63.9 °F 46.6 °F 53% 30.33 in 10.0 mi SE 11.5 mph 18.4 mph N/A   Overcast
11:35 AM 64.4 °F 48.0 °F 55% 30.32 in 10.0 mi SE 12.7 mph 19.6 mph N/A   Overcast
11:55 AM 64.4 °F 47.8 °F 55% 30.32 in 10.0 mi SE 10.4 mph 19.6 mph N/A   Overcast
12:15 PM 64.8 °F 47.8 °F 54% 30.32 in 10.0 mi SE 11.5 mph 20.7 mph N/A   Overcast
12:35 PM 64.4 °F 48.0 °F 55% 30.32 in 10.0 mi SE 13.8 mph 18.4 mph N/A   Overcast
12:55 PM 64.6 °F 48.2 °F 55% 30.31 in 10.0 mi SE 13.8 mph 19.6 mph N/A   Overcast
1:15 PM 64.8 °F 48.9 °F 56% 30.31 in 10.0 mi SE 12.7 mph 16.1 mph N/A   Overcast
1:35 PM 65.1 °F 49.3 °F 56% 30.30 in 10.0 mi SE 12.7 mph - N/A   Overcast
1:55 PM 66.2 °F 49.5 °F 55% 30.29 in 10.0 mi SE 12.7 mph 17.3 mph N/A   Overcast
2:15 PM 66.9 °F 50.0 °F 54% 30.27 in 10.0 mi SE 12.7 mph - N/A   Overcast
2:35 PM 66.6 °F 49.6 °F 54% 30.26 in 10.0 mi SE 13.8 mph 19.6 mph N/A   Overcast
2:55 PM 66.4 °F 50.2 °F 56% 30.26 in 10.0 mi ESE 11.5 mph 17.3 mph N/A   Overcast
3:15 PM 65.7 °F 50.2 °F 57% 30.25 in 10.0 mi SE 11.5 mph 17.3 mph N/A   Overcast
3:35 PM 65.3 °F 50.4 °F 58% 30.24 in 10.0 mi SE 12.7 mph 18.4 mph N/A   Overcast
3:55 PM 65.3 °F 50.5 °F 59% 30.23 in 10.0 mi SE 13.8 mph 17.3 mph N/A   Overcast
4:15 PM 65.3 °F 50.9 °F 60% 30.22 in 10.0 mi SE 11.5 mph 18.4 mph N/A   Overcast
4:35 PM 65.5 °F 51.4 °F 60% 30.22 in 10.0 mi SE 12.7 mph - N/A   Overcast
4:55 PM 65.3 °F 52.0 °F 62% 30.21 in 10.0 mi SE 12.7 mph 16.1 mph N/A   Overcast
5:15 PM 64.9 °F 52.7 °F 64% 30.21 in 10.0 mi SE 12.7 mph 18.4 mph N/A   Overcast
5:35 PM 65.1 °F 53.1 °F 65% 30.21 in 10.0 mi SSE 11.5 mph - N/A   Overcast
5:55 PM 64.8 °F 53.6 °F 67% 30.21 in 10.0 mi SSE 10.4 mph - N/A   Overcast
6:15 PM 64.6 °F 53.8 °F 68% 30.21 in 10.0 mi SSE 10.4 mph 18.4 mph N/A   Overcast
6:35 PM 64.4 °F 54.3 °F 70% 30.21 in 10.0 mi SSE 11.5 mph - N/A   Overcast
6:55 PM 64.4 °F 54.0 °F 69% 30.21 in 10.0 mi SSE 12.7 mph 18.4 mph N/A   Overcast
7:15 PM 64.0 °F 54.5 °F 71% 30.21 in 10.0 mi SSE 11.5 mph 17.3 mph N/A   Overcast
7:35 PM 63.9 °F 54.7 °F 72% 30.20 in 10.0 mi SE 11.5 mph 17.3 mph N/A   Overcast
7:55 PM 63.9 °F 54.9 °F 72% 30.20 in 10.0 mi SSE 11.5 mph 16.1 mph N/A   Overcast
8:15 PM 63.7 °F 55.0 °F 73% 30.20 in 10.0 mi SE 11.5 mph - N/A   Overcast
8:35 PM 63.7 °F 55.8 °F 75% 30.21 in 10.0 mi SSE 10.4 mph - N/A   Overcast
8:55 PM 63.9 °F 55.8 °F 75% 30.21 in 10.0 mi SSE 11.5 mph - N/A   Overcast
9:15 PM 63.7 °F 55.8 °F 75% 30.21 in 10.0 mi SE 9.2 mph - N/A   Overcast
9:35 PM 63.9 °F 56.3 °F 76% 30.22 in 10.0 mi SSE 10.4 mph - N/A   Overcast
9:55 PM 63.9 °F 56.7 °F 77% 30.22 in 10.0 mi SSE 9.2 mph - N/A   Overcast
10:15 PM 63.9 °F 56.3 °F 76% 30.22 in 10.0 mi SSE 10.4 mph - N/A   Overcast
10:35 PM 63.9 °F 56.7 °F 77% 30.22 in 10.0 mi SSE 10.4 mph - N/A   Overcast
10:55 PM 63.9 °F 56.7 °F 77% 30.22 in 10.0 mi SSE 9.2 mph - N/A   Overcast
11:15 PM 63.9 °F 57.0 °F 78% 30.22 in 10.0 mi SSE 9.2 mph - N/A   Overcast
11:35 PM 63.9 °F 57.4 °F 79% 30.21 in 10.0 mi SSE 10.4 mph - N/A   Overcast
11:55 PM 63.9 °F 57.7 °F 80% 30.21 in 10.0 mi SE 9.2 mph - N/A   Overcast